Погода в Тлядали

Россия / Республика Дагестан     42°07′31″N   46°14′18″E
темп.,
°C
ветер,
м/с
пор.,
м/с
влажн.,
%
обл.,
%
осадки,
мм/ч
давл.,
гПа
погр.,
м
2 декабря, чт
чт200:00−7ююз349899 0.3 1010209
03:00−12юз239761 0.3 101638
06:00−15юз119658 0.0 102211
09:00−10ююз23755 0.0 1019118
12:00−6св015838 0.0 1016852
15:00−7ссв337855 0.1 1018292
18:00−13ссв329318 0.0 102827
21:00−14ссв11680 0.0 103010
3 декабря, пт
пт300:00−15з11720 0.0 103310
03:00−15зюз118511 0.0 103411
06:00−15зюз119572 0.0 103411
09:00−10ююз12792 0.0 103070
12:00−5ююз33589 0.0 1024208
15:00−5юз226799 0.0 102491
18:00−10з116980 0.0 102811
21:00−10з11590 0.0 102910
4 декабря, сб
сб400:00−10зсз11570 0.0 102810
03:00−10ссз11545 0.0 102710
06:00−10с224810 0.0 102710
09:00−4с11497 0.0 102224
12:000юз22450 0.0 1017251
15:00−2юз11654 0.0 101823
18:00−8с12630 0.0 102410
21:00−9сз11585 0.0 102510
5 декабря, вс
вс500:00−8з1159100 0.0 102410
03:00−8сз1157100 0.0 102310
06:00−8сз115092 0.0 102210
09:00−4зюз1152100 0.0 101922
12:000ююз234974 0.0 1014155
15:00−1юз226294 0.0 101343
18:00−6с115397 0.0 101910
21:00−6с114937 0.0 101910
6 декабря, пн
пн600:00−7с114760 0.0 102110
03:00−7с115140 0.0 102210
06:00−8с225511 0.0 102310
09:00−3с11548 0.0 102124
12:00+1св01510 0.0 1018334
15:00−1с11640 0.0 101911
18:00−6с12650 0.0 102610
21:00−7с11665 0.0 102710